Other Public Products
Issued by NWS Charleston, SC

Current Version | Previous Version | Graphics & Text | Print | Product List | Glossary On
Versions: 1 2 3 4 5 6 7 8 9 10 11 12 13 14 15 16 17 18 19 20 21 22 23 24 25 26 27 28 29 30 31 32 33 34 35 36 37 38 39 40 41 42 43 44 45 46 47 48 49 50
000
FPUS82 KCHS 191040
OPUCHS

TEST...KCHS/KSAV Gateway Observations...TEST
National Weather Service Charleston SC
600 AM EDT TUE SEP 19 2017

NOTE: "fair" indicates few or no clouds below 12,000 feet with no
significant weather and/or obstructions to visibility.

SCZ050-WAZ558-NCZ071-TXZ119-213-PAZ071-DCZ001-FLZ074-172-MI076-
NYZ176-178-MAZ016-IL014-TNZ027-NJZ106-GAZ044-MD014-191100-

...Gateway Observations for Charleston International...

CITY           SKY/WX    TMP DP  RH WIND       PRES   REMARKS
Chas Airport   CLEAR     68  68 100 NW5       29.96R
Seattle        CLOUDY    50  48  93 S9        29.69S
Charlotte      PTCLDY    68  67  96 N3        30.02R
Dallas DFW     PTCLDY    77  73  87 S9        29.89F
Dallas Love    PTCLDY    77  71  82 SE8       29.90F
Philladelphia  CLOUDY    71  67  87 NE14      29.99S
Wash National  PTCLDY    69  66  90 N13       30.00S
Baltimore      MOCLDY    68  66  93 N6        29.99S
Miami          PTCLDY    81  77  88 CALM      29.91R
Detroit        CLOUDY    64  61  90 N6        30.00F
Newark         CLOUDY    70  67  90 N14       30.02S
Laguardia      CLOUDY    71  67  87 NE15      30.01S
J F K          CLOUDY    71  67  87 N16       30.01F
Boston Logan   CLOUDY    63  63 100 NE10      30.12S FOG
Ft. Lauderdale MOCLDY    80  77  90 CALM      29.90R
Chicago O`Hare LGT RAIN  66  64  93 N6        29.93F
Chicago Midway CLOUDY    67  65  93 N6        29.92F FOG
Houston Bush   PTCLDY    76  74  93 CALM      29.94S
Houston Hobby  PTCLDY    79  76  90 CALM      29.94S
Nashville      PTCLDY    68  66  93 S3        29.97S
Atlanta        PTCLDY    67  65  93 NW8       30.00R

$$

GAZ044-118-TXZ119-213-NCZ071-DCZ001-MDZ014-506-PAZ021-071-NJZ106-
NYZ176-178-MAZ106-OHZ011-021-055-MIZ076-KYZ091-ILZ014-INZ047-
MNZ060-ONZ431-191100-

...Gateway Observations for Savannah International...

CITY           SKY/WX    TMP DP  RH WIND       PRES   REMARKS
Savannah Arpt  PTCLDY    70  69  97 CALM      29.97R
Atlanta        PTCLDY    67  65  93 NW8       30.00R
Charlotte      PTCLDY    68  67  96 N3        30.02R
Dallas DFW     PTCLDY    77  73  87 S9        29.89F
Houston Bush   PTCLDY    76  74  93 CALM      29.94S
Wash National  PTCLDY    69  66  90 N13       30.00S
Wash Dulles    CLOUDY    67  65  93 N8        30.01F
Baltimore      MOCLDY    68  66  93 N6        29.99S
Philadelphia   CLOUDY    71  67  87 NE14      29.99S
Newark         CLOUDY    70  67  90 N14       30.02S
Laguardia      CLOUDY    71  67  87 NE15      30.01S
J F K          CLOUDY    71  67  87 N16       30.01F
Boston         CLOUDY    63  63 100 NE10      30.12S FOG
Pittsburg      MOCLDY    65  63  93 CALM      30.02F
Akron          CLOUDY    65  59  81 CALM      30.02S
Cleveland      MOCLDY    67  63  87 CALM      30.01S
Cincinnati     CLOUDY    69  67  93 S7        29.96F
Columbus       MOCLDY    65  65 100 CALM      29.98S
Detroit        CLOUDY    64  61  90 N6        30.00F
Chicago O`Hare LGT RAIN  66  64  93 N6        29.93F
Minneapolis    CLOUDY    60  58  92 SE8       29.92S
Indianapolis   RAIN      69  67  93 SW10      29.95S FOG
Toronto Canada MOCLDY    66  64  94 N7        30.02S

$$




USA.gov is the U.S. government's official web portal to all federal, state and local government web resources and services.